Location: Sihaung
(22.8641°N, 94.0549°E)
Time: 03:06:54
(UTC+00:00)

Cosmos 2263 Rocket - Pass Details

Date: 03 March 2021
Orbit: 825 x 847 km, 71.0° (Epoch: 13 April)

Event Time Altitude Azimuth Distance (km) Brightness Sun altitude
Rises 12:49:24 0° 336° (NNW) 3,358 5.6 -14.9°
Reaches altitude 10° 12:51:52 10° 332° (NNW) 2,424 4.9 -15.5°
Maximum altitude 12:57:17 56° 255° (WSW) 976 2.9 -16.7°
Drops below altitude 10° 13:02:42 10° 178° (S) 2,425 4.6 -18.0°
Sets 13:05:11 0° 174° (S) 3,360 5.3 -18.5°
